Other Public Products
Issued by NWS Grand Forks, ND

Home | Current Version | Previous Version | Graphics & Text | Print | Product List | Glossary On
Versions: 1 2 3 4 5 6 7 8 9 10 11 12 13 14 15 16 17 18 19 20 21 22 23 24 25 26 27 28 29 30 31 32 33 34 35 36 37 38 39 40 41 42 43 44 45 46 47 48 49 50
000
FPUS83 KFGF 281831
OPUFGF
PRAIRIE TO PINES WEATHER ROUNDUP
NATIONAL WEATHER SERVICE EASTERN NORTH DAKOTA/GRAND FORKS ND
100 PM CDT FRI APR 28 2017

 **SATELLITE DATA USED TO AUGMENT SKY COVER AT AUTOMATED STATIONS**
 *****  WEATHER ACROSS EASTERN NORTH DAKOTA  *****

CITY           SKY/WX    TMP DP  RH WIND       PRES   REMARKS
GRAND FORKS    FAIR      49  29  46 N20G26    29.99S
6HR MIN TEMP:  31; 6HR MAX TEMP:  49;

GRAND FORKS AF FAIR      48  24  40 N14       30.00R
GRAND CITY NWS NOT AVBL
BUXTON           N/A     48  25  40 NW14        N/A
DEVILS LAKE    FAIR      49  14  24 N16       30.03R
6HR MIN TEMP:  26; 6HR MAX TEMP:  49;

FARGO          FAIR      48  27  44 NW9       30.00S
6HR MIN TEMP:  27; 6HR MAX TEMP:  48;

WAHPETON ARPT  FAIR      46  28  49 N12G17    30.01S
$$

 *****  WEATHER ACROSS CENTRAL AND WESTERN NORTH DAKOTA  *****

CITY           SKY/WX    TMP DP  RH WIND       PRES   REMARKS
JAMESTOWN      FAIR      49  20  31 N12G21    30.01R
6HR MIN TEMP:  28; 6HR MAX TEMP:  49;

BISMARCK       FAIR      53  18  25 N12       30.04S
6HR MIN TEMP:  26; 6HR MAX TEMP:  53;

MINOT          FAIR      52  14  22 NW8       30.05R
6HR MIN TEMP:  25; 6HR MAX TEMP:  52;

MINOT AFB      FAIR      50  15  24 NE6       30.04S
6HR MIN TEMP:  20; 6HR MAX TEMP:  50;

GARRISON         N/A     49  12  22 MISG      30.04S
6HR MIN TEMP:  22; 6HR MAX TEMP:  50;

WILLISTON      FAIR      54  23  30 VRB3      30.05S
6HR MIN TEMP:  27; 6HR MAX TEMP:  54;

DICKINSON      FAIR      49  20  31 E14G20    30.00S
6HR MIN TEMP:  24; 6HR MAX TEMP:  49;

HETTINGER      FAIR      48  25  40 E10G21    30.01R
6HR MIN TEMP:  26; 6HR MAX TEMP:  49;

$$

 *****  OTHER OBSERVATIONS NORTHEAST NORTH DAKOTA  *****

CITY           SKY/WX    TMP DP  RH WIND       PRES   REMARKS
WALHALLA       NOT AVBL
LANGDON        FAIR      52  10  19 N13G23    30.01R
CAVALIER       FAIR      50  18  27 NW14G23   30.01R
GRAFTON        FAIR      50  23  34 N18G24    30.02R
CANDO          NOT AVBL
FORT TOTTEN      N/A     52  21  29 NW6       29.95S
ROLLA          FAIR      48  10  21 NW18      30.03S
RUGBY          NOT AVBL
 ***** THE ABOVE OBSERVATIONS ARE NON NWS ARE NOT QUALITY
        CONTROLLED AND MAY MIS-REPORT RAIN FOR SNOW...
$$

 *****  OTHER OBSERVATIONS SOUTHEAST NORTH DAKOTA *****

CITY           SKY/WX    TMP DP  RH WIND       PRES   REMARKS
COOPERSTOWN    FAIR      48  23  37 N18       30.01S
VALLEY CITY    FAIR      50  14  23 N13G21    30.01S
OAKES          NOT AVBL
GWINNER        CLEAR     48  27  43 MISG      30.01S
SHEYENNE NWR     N/A     48  23  37 N7        29.95S
BUFFALO          N/A     48  13  25 S10         N/A
WYNDMERE         N/A     46  30  53 N8          N/A
 ***** THE ABOVE OBSERVATIONS ARE NON NWS ARE NOT QUALITY
       CONTROLLED AND MAY MIS-REPORT RAIN FOR SNOW...
$$

  *****  WEATHER ACROSS NORTHERN MINNESOTA  *****

CITY           SKY/WX    TMP DP  RH WIND       PRES   REMARKS
FLAG ISLAND    FAIR      39  19  45 NW16      29.94R
WARROAD        FAIR      43  18  36 NW13      29.95R
ROSEAU         FAIR      45  19  36 N10       29.95S
HALLOCK        FAIR      50  12  22 N14G20    29.98R
THF RVR FALLS  FAIR      43  21  41 NW14G21   29.98R
6HR MIN TEMP:  28; 6HR MAX TEMP:  43;

HALSTAD          N/A     46  27  47 N10         N/A
FOSSTON        FAIR      45  21  39 NW14      29.96S
BAUDETTE       FAIR      40  20  44 NW18G26   29.91R
6HR MIN TEMP:  31; 6HR MAX TEMP:  40;

WASKISH        CLOUDY    45  18  33 N13G20    29.93R
CROOKSTON      FAIR      46  28  49 N15G23    30.00S
$$
  *****  WEATHER ACROSS CENTRAL AND WEST MINNESOTA  *****

CITY           SKY/WX    TMP DP  RH WIND       PRES   REMARKS
BEMIDJI        FAIR      41  22  45 NW9       29.93R
PARK RAPIDS    FAIR      47  19  33 NW17      29.93R
6HR MIN TEMP:  31; 6HR MAX TEMP:  47;

WADENA         FAIR      45  27  49 NW9       29.94F
DETROIT LAKES  FAIR      43  28  56 N14       29.98S
MOORHEAD       FAIR      46  28  49 N10       30.01S
FERGUS FALLS   FAIR      45  27  49 NW7G21    29.99S
ELBOW LAKE     FAIR      44  25  47 W15       29.97F
6HR MIN TEMP:  30; 6HR MAX TEMP:  44;

MORRIS MN      FAIR      48  28  46 N16       29.96S
STAPLES        FAIR      45  27  49 NW10      29.95S
WHEATON        FAIR      46  25  42 N14G21    30.01S
$$
  *****  WEATHER ELSEWHERE ACROSS MINNESOTA  *****

CITY           SKY/WX    TMP DP  RH WIND       PRES   REMARKS
DULUTH         PTSUNNY   41  28  60 W16       29.88R
6HR MIN TEMP:  29; 6HR MAX TEMP:  41;

INTRNTL FALLS  FAIR      37  23  56 N14       29.89R
6HR MIN TEMP:  28; 6HR MAX TEMP:  37; 6HR PCP:  0.01;

ELY            CLOUDY    37  21  52 NW15G28   29.84R
CLOQUET        PTSUNNY   43  25  49 SW12G22   29.89F
BRAINERD       FAIR      43  22  43 MISG      29.94S
6HR MIN TEMP:  29; 6HR MAX TEMP:  43;

HIBBING        FAIR      42  23  46 NW15      29.86R
6HR MIN TEMP:  26; 6HR MAX TEMP:  42;

ALEXANDRIA     FAIR      46  26  45 N14       29.96S
6HR MIN TEMP:  30; 6HR MAX TEMP:  46;

SAINT CLOUD    FAIR      45  30  55 N14       29.94F
6HR MIN TEMP:  31; 6HR MAX TEMP:  45;

MINNEAPOLIS    PTSUNNY   47  27  45 N10       29.95S
6HR MIN TEMP:  37; 6HR MAX TEMP:  48;

$$

  *****  WEATHER ACROSS SOUTH DAKOTA  *****

CITY           SKY/WX    TMP DP  RH WIND       PRES   REMARKS
SIOUX FALLS    CLOUDY    44  30  57 NE14G21   29.93F
6HR MIN TEMP:  27; 6HR MAX TEMP:  45;

BROOKINGS      FAIR      44  27  51 NE15G21   29.94F
WATERTOWN      FAIR      45  26  47 NE23      29.95R
6HR MIN TEMP:  23; 6HR MAX TEMP:  47;

HURON          FAIR      49  26  41 NE14      29.96F
6HR MIN TEMP:  26; 6HR MAX TEMP:  49;

SISSETON         N/A     50  26  39 NE17G25   29.98S
ABERDEEN       FAIR      50  20  30 NE18G26   30.00R
6HR MIN TEMP:  28; 6HR MAX TEMP:  50;

MITCHELL       FAIR      48  26  42 NE15G23   29.95F
PIERRE         FAIR      49  24  37 E16G23    29.97S
6HR MIN TEMP:  28; 6HR MAX TEMP:  49;

MOBRIDGE       FAIR      52  18  26 NE17G24   29.98R
RAPID CITY     CLOUDY    43  28  55 E13       29.96R
6HR MIN TEMP:  35; 6HR MAX TEMP:  43;

$$

  *****  SOME WEATHER IN NEARBY STATES *****

CITY           SKY/WX    TMP DP  RH WIND       PRES   REMARKS
GLASGOW MT     CLOUDY    52  20  28 VRB6      30.02S
6HR MIN TEMP:  39; 6HR MAX TEMP:  53;

GREAT FALLS MT RAIN      38  33  82 W6        30.06R
6HR MIN TEMP:  36; 6HR MAX TEMP:  47; 6HR PCP: TRACE;

CHEYENNE WY    FAIR      40  28  62 N21G29    29.70R
6HR MIN TEMP:  29; 6HR MAX TEMP:  41;

SCOTTSBLUFF NE SNOW      34  31  88 E21G26    29.84R VSB 1/2 WCI  22
6HR MIN TEMP:  33; 6HR MAX TEMP:  34; 6HR PCP:  0.32;

OMAHA NE       CLOUDY    41  36  82 NE14G22   29.82F
6HR MIN TEMP:  38; 6HR MAX TEMP:  41; 6HR PCP:  0.36;

DES MOINES IA  LGT RAIN  40  36  86 NE16G24   29.83F FOG
6HR MIN TEMP:  38; 6HR MAX TEMP:  40; 6HR PCP:  0.21;

DAVENPORT IA   LGT RAIN  44  41  89 NE15      29.86F FOG
6HR MIN TEMP:  36; 6HR MAX TEMP:  45; 6HR PCP:  0.12;

CHICAGO IL     CLOUDY    58  46  64 SE9       29.93S
6HR MIN TEMP:  41; 6HR MAX TEMP:  58;

EAU CLAIRE WI  FAIR      45  25  45 CALM      29.92F
6HR MIN TEMP:  34; 6HR MAX TEMP:  45;

LA CROSSE WI   FAIR      49  31  49 CALM      29.93R
6HR MIN TEMP:  36; 6HR MAX TEMP:  49;

$$

  *****  SOME NATIONAL WEATHER *****

CITY           SKY/WX    TMP DP  RH WIND       PRES   REMARKS
LA GUARDIA NY  FAIR      82  57  42 VRB6      29.98F



USA.gov is the U.S. government's official web portal to all federal, state and local government web resources and services.